User: anonymous   Login
Location: Unspecified
(0.0000°N, 0.0000°E)
Time: 20:06:34
(UTC+00:00)
Language:

OPTUS D2 - Orbit

View from above orbital plane
View from above orbital plane
View from above satellite
View from above satellite

Ground track
Ground track

The orbit data is extracted from the following two-line orbital elements,

1 32252U 07044A   18171.87570994 -.00000199 +00000-0 +00000-0 0  9996
2 32252 000.0153 005.7895 0003777 084.3789 286.1178 01.00269648039182
Epoch (UTC): 20 June 2018 21:01:01
Eccentricity: 0.0003777
inclination: 0.0153°
perigee height: 35771 km
apogee height: 35803 km
right ascension of ascending node: 5.7895°
argument of perigee: 84.3789°
revolutions per day: 1.00269648
mean anomaly at epoch: 286.1178°
orbit number at epoch: 3918

The dashed part of the orbit path shows where the satellite is in the earth's shadow,  

DLR